GFSSE_250_rhum_195.txt.gz
RH
44 37 33 25 25 23 24 28 35 38 43 52 58 57 62 60 61 74 82 79 69 66 66 58 46 45 44 46 47 46 41 36 32 31 25 25 24 22 21 23 26 32 42
35 39 36 29 27 27 23 27 28 33 38 37 36 37 42 48 51 56 54 51 49 41 37 33 28 32 31 32 35 41 42 38 34 31 28 25 26 28 28 27 27 29 44
48 48 41 32 24 25 28 27 27 30 33 35 37 37 36 35 35 35 32 28 25 25 26 26 26 23 22 30 37 46 41 40 39 34 25 22 19 22 32 34 35 35 34
53 48 42 36 31 24 23 23 23 27 36 37 33 30 31 36 40 35 32 30 30 30 27 28 27 26 25 25 25 27 26 27 33 31 27 24 20 19 26 30 41 42 53
50 50 46 39 33 34 32 29 26 24 24 28 36 38 39 38 38 35 35 35 35 32 29 32 34 32 35 32 32 32 31 32 32 30 34 27 22 20 26 39 54 53 62
60 54 48 42 39 44 57 62 53 35 28 25 29 31 33 35 33 36 40 39 32 33 49 42 42 42 39 26 18 16 15 15 15 16 21 31 24 22 32 38 48 59 61
59 62 51 47 46 42 42 45 77 91 78 52 40 35 36 35 33 33 43 52 54 51 46 47 45 53 24 17 12 13 14 15 16 15 16 20 28 28 30 34 49 53 60
46 51 48 54 65 53 42 43 75 74 91 92 72 52 64 57 56 51 85 89 66 65 63 64 51 37 17 16 13 18 23 19 26 31 29 31 26 32 43 55 58 59 60
72 63 62 67 55 49 52 68 78 93 98 99 100 100 90 83 75 78 95 92 80 72 68 65 36 21 21 21 20 23 27 33 33 29 28 37 39 49 55 57 67 80 94
64 81 64 56 61 84 76 66 66 76 93 91 87 87 84 74 68 70 81 84 81 76 53 42 23 27 22 26 24 24 27 42 53 64 52 56 65 71 98 97 98 100 100
53 56 56 62 52 59 98 99 72 76 68 96 84 79 88 94 80 67 73 86 85 90 53 38 28 28 28 24 30 28 23 41 62 68 82 88 100 100 100 100 98 89 89
50 51 69 54 59 56 64 72 84 79 67 56 99 100 88 92 100 100 96 99 86 83 72 58 45 39 34 29 30 37 35 43 68 92 87 85 78 72 79 91 89 93 90
47 55 62 99 60 49 50 50 55 78 88 79 77 98 99 88 100 100 100 100 100 87 66 58 63 59 54 50 49 47 56 58 56 54 61 87 98 97 100 100 100 94 93
39 38 53 86 97 100 74 60 54 52 50 82 86 89 100 100 84 100 100 100 100 86 62 53 54 58 55 56 56 54 64 68 58 51 45 54 60 76 90 92 79 73 91
36 42 43 73 87 94 100 97 74 65 54 42 74 97 93 92 100 100 100 100 100 86 67 69 67 69 62 55 56 67 65 57 62 66 66 66 60 65 59 66 79 97 86
34 36 48 64 89 100 100 99 100 100 61 66 69 84 100 100 97 100 100 100 100 100 100 91 99 100 87 78 73 79 79 86 93 91 91 85 81 84 89 100 100 100 100
32 44 64 76 99 100 72 65 79 82 72 82 87 94 97 100 100 100 100 100 100 100 100 100 100 100 100 99 97 97 100 100 92 90 93 96 100 100 90 88 86 87 82
50 52 79 100 100 88 60 100 66 74 82 81 93 100 98 84 97 100 100 100 100 100 100 100 100 100 100 100 97 92 92 96 100 100 100 100 100 99 92 85 89 93 86
61 62 93 100 100 77 100 100 90 74 70 94 100 100 100 100 97 99 100 100 100 100 100 100 100 100 100 100 100 100 100 100 100 100 89 89 94 86 80 68 66 78 77
95 52 57 89 68 98 100 100 94 92 56 89 100 100 100 100 100 100 99 100 100 100 100 100 100 100 100 100 100 100 100 100 94 98 98 91 83 81 72 64 59 66 74
70 84 100 100 100 79 71 96 89 86 47 69 100 100 100 100 100 100 100 100 100 100 100 100 100 100 100 96 78 76 84 87 86 89 93 94 84 83 88 84 80 71 67
50 74 100 100 100 89 62 82 100 82 96 72 96 95 100 100 100 100 100 100 100 100 100 100 100 100 100 100 94 92 96 97 97 98 95 92 84 76 70 61 58 59 56
93 100 100 100 100 100 77 100 100 100 100 100 85 82 93 100 100 100 99 100 100 98 100 100 100 100 100 100 100 100 100 91 84 76 74 68 67 68 69 75 69 64 60
100 100 100 89 92 94 94 95 100 100 100 100 100 97 82 85 100 100 100 93 100 100 100 99 92 100 100 100 100 100 100 99 98 95 89 81 75 68 66 67 68 61 54
100 100 100 100 100 100 100 100 100 97 100 100 100 100 79 65 60 92 98 100 100 100 100 100 95 94 95 95 95 97 100 97 94 90 88 84 84 76 65 61 61 54 47
100 100 100 100 100 100 100 100 100 99 100 100 100 100 89 80 77 70 81 91 90 100 100 100 96 93 85 87 93 81 70 72 68 65 65 62 57 58 56 50 44 42 41

GFSSE_250_rhum_201.txt.gz
RH
20 21 19 22 31 40 42 53 53 44 36 29 25 24 26 31 36 40 50 59 94 100 100 100 100 100 99 100 99 100 100 100 98 90 74 62 58 64 70 66 60 54 50
17 17 21 26 28 38 55 59 62 55 45 37 30 28 28 30 34 36 40 45 51 78 100 100 100 99 96 90 90 89 84 81 78 68 59 52 46 50 48 49 46 45 39
15 14 16 24 32 37 54 57 59 57 53 43 36 28 24 34 29 33 39 37 37 41 51 65 67 67 71 71 71 69 80 73 53 46 38 32 30 33 34 34 36 36 33
16 15 15 22 28 38 52 55 56 55 48 44 41 38 40 34 38 34 38 39 37 38 36 32 32 31 33 32 34 35 34 31 29 26 24 19 18 19 23 30 35 42 45
18 15 14 16 24 31 32 48 57 51 48 46 51 42 42 42 43 48 45 43 37 35 39 36 35 40 38 35 34 30 26 23 20 20 19 19 23 23 22 27 36 39 46
21 19 19 17 19 22 29 38 49 56 48 47 47 52 80 100 100 100 88 64 54 48 40 39 40 37 34 34 33 31 28 25 24 23 22 25 25 27 30 33 36 35 33
30 28 23 20 20 20 29 41 58 72 58 50 48 40 81 93 100 100 100 81 61 43 43 44 39 38 36 37 34 32 29 26 25 30 28 36 35 31 33 34 34 35 39
37 33 27 23 19 20 23 32 75 85 74 49 53 74 100 100 100 93 90 100 94 71 71 47 38 37 39 41 43 38 34 32 32 38 40 47 46 24 14 14 16 19 21
50 49 39 34 45 30 21 29 38 55 61 53 42 52 100 100 100 91 82 97 100 96 93 91 61 57 54 57 52 51 58 51 41 44 48 42 30 17 17 18 17 21 21
56 57 62 51 40 46 33 29 30 67 68 62 43 44 48 99 100 100 100 99 94 96 100 98 80 89 82 76 76 88 84 66 65 64 54 36 21 23 24 24 26 36 60
57 64 76 65 36 33 40 83 78 40 58 45 41 53 47 71 63 63 99 84 92 83 66 68 81 84 78 79 88 90 89 76 62 49 36 28 32 29 31 39 43 41 69
64 65 90 70 52 39 46 61 44 44 39 40 77 61 43 53 74 81 96 79 97 75 70 85 69 65 94 86 84 90 77 84 53 40 39 39 40 38 38 42 60 77 99
41 29 44 92 71 34 42 41 37 43 44 55 55 60 53 52 51 79 72 77 100 95 91 97 100 100 99 90 100 89 78 96 75 45 36 48 63 63 52 49 58 63 81
92 49 46 38 58 54 46 32 31 57 38 44 49 64 69 74 44 46 44 52 69 92 100 93 81 100 100 100 88 81 72 98 90 75 72 67 70 79 93 91 88 80 69
100 100 90 70 42 42 46 53 37 27 39 38 59 70 89 89 65 60 35 56 72 99 100 100 100 79 100 100 99 84 86 100 98 98 83 82 81 84 100 100 100 100 100
100 100 100 90 77 55 60 49 44 44 32 45 44 53 96 90 80 52 48 66 78 97 100 100 100 100 86 93 100 100 91 90 100 100 100 99 99 98 100 100 100 93 86
86 100 100 100 93 66 74 61 52 40 47 76 41 60 91 100 100 100 93 59 64 46 79 98 98 100 100 93 100 99 93 93 95 100 100 100 100 100 96 100 100 100 96
99 100 100 100 100 100 81 78 53 43 51 85 81 55 78 99 100 100 90 66 53 36 40 61 94 100 97 100 100 100 100 100 93 88 89 99 100 100 100 100 94 95 94
100 100 100 100 100 100 100 94 69 46 46 69 90 62 100 100 100 100 100 73 53 50 30 27 50 89 100 100 100 100 100 100 100 100 90 85 91 100 100 100 96 88 85
100 100 100 100 100 100 100 98 85 61 45 49 52 92 72 95 100 100 100 95 49 84 82 26 49 91 90 100 100 100 100 100 96 100 100 100 97 86 97 100 100 100 96
100 100 100 100 100 100 100 100 93 69 60 59 48 46 56 96 100 100 99 88 86 100 64 38 59 100 96 100 80 100 100 100 100 100 100 80 90 100 100 100 100 100 100
100 100 100 100 100 100 100 100 78 62 58 85 74 63 77 75 66 57 53 92 97 89 74 42 68 93 100 100 100 100 100 100 98 100 100 100 92 92 100 100 97 97 97
98 100 100 100 100 100 100 100 82 52 42 84 84 62 64 99 99 81 79 100 99 91 82 55 69 100 100 98 100 90 77 72 83 90 93 100 98 97 86 82 89 92 91
100 100 100 100 100 100 100 84 64 41 46 69 77 100 100 91 72 74 84 80 100 82 99 88 59 89 100 100 100 100 86 73 66 70 79 76 91 97 92 86 85 89 84
100 100 100 100 100 84 68 47 40 40 49 88 78 84 100 100 100 100 88 86 91 100 100 100 80 64 78 94 87 90 100 98 96 72 61 61 62 58 64 76 88 85 81
100 100 88 86 71 52 40 35 39 51 76 100 78 100 90 82 80 94 98 83 87 88 98 100 100 92 84 96 88 74 83 97 98 94 93 76 54 56 65 70 67 68 75

GFSSE_250_rhum_204.txt.gz
RH
28 18 18 23 24 21 18 17 15 20 30 39 47 49 43 34 26 24 27 30 36 38 47 48 86 100 95 88 92 100 100 100 100 100 100 100 98 88 83 79 67 56 52
100 41 15 15 16 17 18 20 22 26 34 54 62 58 48 41 34 26 26 27 33 40 41 52 71 90 100 100 98 100 100 99 100 100 100 100 99 92 87 75 60 54 46
22 18 17 15 14 14 15 23 30 32 41 56 58 58 56 49 39 32 29 27 29 33 37 42 46 52 63 73 92 80 74 86 85 82 78 75 76 75 64 51 42 37 31
24 19 15 14 17 15 15 21 27 33 41 50 54 54 49 46 43 41 38 32 31 34 35 38 38 38 41 39 54 64 70 64 56 51 53 50 48 43 38 32 26 24 22
36 35 27 21 23 20 18 17 24 26 36 51 62 54 48 41 39 41 43 44 41 42 43 42 43 41 34 35 38 37 36 32 30 27 24 23 22 22 20 24 24 24 19
60 46 46 36 28 20 20 22 19 22 33 51 65 56 48 42 43 46 59 99 100 83 55 50 47 55 50 39 32 31 33 31 32 29 29 26 23 20 20 21 22 25 29
77 56 50 40 36 26 22 23 24 22 24 38 52 55 55 49 53 64 86 84 95 81 75 77 61 48 39 36 38 36 32 28 33 27 27 27 26 24 23 21 20 21 23
54 65 58 50 41 35 36 31 26 23 28 36 40 52 62 53 66 71 70 92 76 52 46 81 70 68 64 46 32 30 34 33 35 31 30 27 27 25 26 24 23 33 37
43 67 56 50 40 55 69 42 33 33 28 33 36 39 41 48 84 100 99 80 97 86 64 66 81 85 55 61 66 47 34 30 35 38 30 37 36 38 35 29 35 44 25
25 35 49 42 41 40 48 55 38 38 59 62 46 30 32 31 49 48 97 100 100 100 100 100 92 78 84 66 74 71 71 69 52 52 72 77 62 57 50 53 48 30 22
32 24 30 48 64 34 32 42 41 58 84 100 89 48 32 29 34 54 57 61 98 100 100 83 51 61 64 61 63 73 84 74 71 67 87 89 82 67 64 51 38 31 28
56 53 53 68 84 76 46 44 50 35 61 61 41 38 43 42 58 66 45 44 43 63 75 86 61 53 51 52 52 80 92 74 71 66 97 98 94 54 48 40 42 49 68
84 65 58 92 98 94 99 83 69 51 31 39 34 50 36 40 62 65 63 53 47 59 77 90 100 85 65 62 58 77 75 69 67 66 84 88 97 68 48 49 51 51 63
100 92 73 84 100 92 100 100 98 81 62 40 30 30 35 32 41 55 66 97 60 40 44 45 60 70 94 86 83 90 96 81 67 72 85 85 89 95 54 53 60 71 61
92 100 86 64 95 100 100 100 100 96 74 63 44 46 54 30 26 54 85 99 82 82 47 56 57 63 79 95 84 68 99 99 72 73 90 99 100 99 97 78 92 86 93
95 100 100 93 77 95 100 100 100 100 88 71 62 61 54 55 36 36 63 71 77 81 54 59 66 65 76 91 77 58 67 100 98 71 73 96 100 100 100 100 100 100 100
88 100 100 100 91 54 91 100 100 100 100 99 87 80 62 60 35 30 51 62 100 100 94 49 80 70 60 59 88 80 56 62 85 99 80 65 80 95 100 100 100 100 100
92 95 100 100 98 100 69 95 100 100 100 97 87 79 75 65 55 45 36 58 100 100 100 100 100 98 52 34 57 97 96 88 90 58 80 87 95 93 98 100 100 100 100
95 100 100 100 96 100 100 100 100 100 100 98 98 87 90 86 70 42 45 66 88 90 100 100 100 82 71 36 29 34 98 100 100 94 84 71 86 87 76 88 95 100 100
100 100 100 100 87 64 100 88 99 71 87 100 100 97 99 82 77 56 46 57 98 100 100 100 100 100 75 86 54 24 23 83 100 100 100 99 90 95 100 94 74 83 98
100 100 100 100 79 98 100 100 100 100 100 100 100 100 100 98 89 70 61 55 70 100 100 100 95 100 99 81 47 28 20 29 66 95 100 90 100 100 100 99 100 100 100
100 100 100 100 100 96 100 100 100 98 100 100 100 100 100 85 76 64 88 68 90 100 99 89 86 61 64 69 58 33 24 27 61 99 100 98 92 81 96 100 100 97 93
100 100 100 100 100 90 84 94 100 100 100 96 100 100 97 89 75 56 78 100 92 100 100 100 83 66 73 72 68 32 45 78 100 100 100 100 98 82 62 66 89 96 88
76 81 100 100 100 100 100 74 100 100 100 100 100 100 92 90 78 54 41 92 97 100 100 85 67 69 66 81 69 53 44 49 98 100 100 100 99 100 89 65 66 64 67
94 92 62 75 100 100 100 100 100 100 100 100 100 88 82 77 69 78 58 92 100 100 100 97 65 51 68 64 74 84 93 55 49 70 92 98 98 100 100 99 84 70 62
85 100 95 95 80 100 100 100 100 100 100 100 100 86 75 69 65 95 77 80 94 100 97 97 87 74 70 95 99 71 76 88 88 56 58 66 72 76 88 94 96 92 94

GFSSE_250_rhum_207.txt.gz
RH
79 80 80 67 49 31 24 17 18 21 19 18 18 22 22 29 30 39 40 38 28 21 18 17 21 26 31 82 98 96 84 100 99 93 93 94 97 91 90 85 83 79 87
100 100 93 35 27 30 18 14 14 13 14 15 15 21 35 38 44 44 40 38 32 28 25 25 23 25 26 31 35 60 88 99 98 100 100 100 100 100 100 98 78 80 80
93 64 34 28 22 17 16 15 14 13 12 13 17 23 35 45 52 49 47 43 40 33 27 25 24 24 27 30 33 38 62 90 84 71 88 100 100 100 100 100 93 92 86
41 29 22 21 25 25 25 20 15 16 17 16 20 26 36 47 55 59 55 49 44 36 32 32 29 28 30 31 29 33 34 46 70 82 77 74 75 73 76 72 66 64 58
16 13 13 13 21 30 35 29 19 18 18 18 24 28 28 32 47 53 55 49 44 44 40 42 46 38 35 31 26 25 28 30 32 31 46 62 60 62 57 43 37 34 33
24 25 24 20 19 26 23 28 20 20 21 19 19 22 29 32 43 52 51 49 47 44 60 65 50 37 40 35 30 28 38 33 27 27 29 29 32 38 38 32 26 23 21
57 40 32 37 42 30 20 22 22 21 20 23 21 20 22 28 44 51 48 45 48 75 61 51 61 56 56 50 34 32 39 38 34 29 25 25 27 26 26 26 25 25 25
76 72 48 38 34 30 33 36 35 25 25 26 26 22 25 30 34 39 62 62 59 56 52 47 45 44 55 56 54 49 54 57 40 28 28 32 28 26 26 24 25 25 24
78 71 63 42 37 36 30 43 75 60 41 37 46 38 31 35 29 41 57 58 58 82 96 80 78 64 49 35 55 56 59 58 50 48 34 27 28 30 30 30 28 27 25
97 98 93 76 51 44 50 52 58 92 84 51 40 99 86 77 41 24 20 24 28 72 94 100 100 100 81 57 49 49 73 56 49 59 63 55 42 39 37 38 44 50 42
100 100 100 100 100 95 76 56 70 96 100 96 63 59 36 46 59 61 32 29 28 35 48 61 84 100 100 100 79 66 62 60 60 50 50 66 68 66 68 69 86 70 65
100 99 100 100 100 100 100 98 98 99 100 100 98 73 69 56 64 38 36 33 36 30 46 48 45 43 47 74 65 60 66 57 56 49 46 47 64 62 66 95 100 95 59
100 100 100 100 100 99 98 98 100 100 100 100 97 92 81 74 61 48 42 41 26 24 34 48 55 50 34 45 55 88 72 72 72 60 42 48 65 66 75 80 98 98 66
82 99 100 92 99 86 100 84 100 100 100 100 100 100 94 91 64 47 54 49 43 38 28 34 38 59 47 46 41 38 54 74 100 91 83 55 52 68 93 100 98 100 87
95 100 100 86 85 92 100 100 90 100 100 100 100 100 100 92 77 78 61 70 59 46 34 26 40 54 63 49 54 52 62 54 73 97 98 81 53 46 62 84 99 100 96
80 80 60 75 57 61 73 49 78 99 100 100 100 100 100 100 90 88 75 92 86 74 52 38 34 46 56 51 49 65 60 46 45 50 79 84 68 57 51 67 90 99 100
71 75 49 46 57 66 79 80 100 99 100 100 100 100 100 100 100 100 92 93 82 96 67 53 72 50 61 85 62 54 82 56 43 35 30 31 42 52 53 52 63 97 92
100 99 75 51 75 56 82 91 100 100 100 97 74 100 100 100 100 100 99 96 86 84 67 58 75 85 67 91 100 100 74 57 43 32 34 37 37 41 51 65 61 64 85
100 80 57 98 62 66 69 86 100 86 88 98 77 100 100 100 100 92 86 100 100 90 68 61 58 97 97 100 100 100 100 81 73 55 32 25 39 71 67 71 78 78 71
88 93 100 100 69 84 100 98 98 99 99 92 100 100 76 63 89 100 100 100 100 97 76 60 53 75 81 100 100 100 100 94 77 64 49 33 20 34 87 100 97 96 100
99 100 100 100 61 83 100 100 100 100 79 67 65 77 92 69 75 100 100 100 100 88 76 74 64 48 100 100 100 100 100 87 76 57 44 32 26 20 21 96 100 100 100
99 100 100 92 69 78 83 97 100 100 99 93 68 66 93 100 100 100 100 100 100 93 100 93 74 70 79 90 100 100 100 96 70 54 41 33 28 30 34 56 76 96 100
62 98 98 89 88 82 77 100 100 100 90 90 100 100 100 100 89 100 100 100 100 86 91 98 96 96 100 100 100 100 100 80 67 56 62 37 42 51 64 96 100 100 98
67 79 77 72 100 90 88 100 100 100 77 74 82 100 88 97 84 100 100 100 99 100 95 90 97 100 100 100 100 100 100 78 54 56 62 56 41 46 61 90 100 100 100
87 74 79 100 100 85 74 100 100 100 100 100 100 100 86 81 79 98 100 90 100 100 100 92 100 100 100 100 100 100 93 69 58 55 59 55 61 42 47 55 68 90 99
84 94 77 85 99 88 88 100 100 100 100 95 100 98 100 95 100 90 82 95 100 98 100 100 100 100 100 100 100 100 84 67 76 75 53 55 64 56 41 40 51 47 48

GFSSE_250_rhum_210.txt.gz
RH
54 70 84 61 92 94 76 61 47 39 31 22 17 16 18 19 18 18 17 15 17 24 28 29 29 25 23 19 16 19 21 46 76 65 52 42 44 49 44 43 32 30 33
92 100 88 71 49 37 38 39 26 22 17 12 11 12 12 13 15 15 15 16 18 23 28 34 38 31 26 21 22 22 24 29 58 100 100 90 98 100 93 80 83 86 83
78 90 68 38 23 20 20 27 23 20 17 14 12 13 14 14 14 15 17 20 27 37 38 37 40 35 30 25 23 25 25 26 26 36 66 63 64 86 100 100 100 100 100
27 22 27 23 20 16 14 16 19 23 22 20 17 17 15 16 21 23 26 30 32 35 38 43 43 39 34 30 28 27 24 24 23 26 27 32 65 85 75 78 93 100 100
27 26 26 32 26 23 22 20 18 18 21 20 19 21 20 18 21 28 35 34 38 44 48 47 40 42 38 33 32 29 29 27 26 25 24 27 32 54 69 68 73 73 74
44 53 57 48 56 42 39 34 27 22 23 43 37 34 22 22 23 22 21 28 36 46 52 48 45 38 34 34 35 32 29 33 27 24 24 26 25 27 32 39 44 54 58
68 74 65 80 77 63 63 49 48 38 32 33 48 71 45 30 38 26 32 36 36 41 49 45 43 38 39 48 51 47 48 42 36 29 24 26 26 26 26 24 24 26 34
84 92 100 100 100 100 96 87 76 78 64 40 36 62 86 53 29 45 31 34 35 50 61 56 45 42 46 49 50 54 62 65 52 48 42 37 31 29 27 25 26 25 24
100 100 100 100 100 100 100 100 100 100 100 73 43 39 79 96 47 57 55 44 36 33 28 31 30 43 46 90 86 69 68 63 56 62 58 42 44 38 37 29 26 27 29
100 90 60 74 98 96 100 100 100 100 100 98 85 41 40 73 91 73 68 60 43 31 30 22 22 26 63 100 100 100 99 82 70 60 54 58 70 49 46 49 42 32 28
100 90 100 95 95 100 100 100 100 100 100 100 99 84 68 76 100 78 63 66 51 36 31 35 30 20 24 36 44 82 92 91 95 82 78 82 55 54 50 47 60 57 56
88 95 100 98 85 95 100 100 100 84 100 100 100 100 99 58 100 97 86 78 72 48 41 36 36 37 24 26 36 38 42 40 41 42 44 64 64 54 52 45 45 58 64
84 97 100 100 83 100 100 75 63 46 55 65 100 100 100 100 100 100 92 88 82 66 56 53 47 44 34 25 28 44 46 45 42 37 35 37 42 52 43 57 51 58 65
63 67 76 94 66 66 58 66 68 81 54 45 43 66 88 100 100 100 73 100 96 75 72 49 56 52 37 31 28 25 40 60 48 39 36 44 51 49 42 47 73 69 69
53 59 74 83 95 97 100 100 100 97 56 36 32 88 76 100 100 82 94 100 100 91 85 70 65 62 50 43 36 31 26 35 50 42 43 46 48 45 46 56 86 100 84
77 87 96 99 100 100 100 100 93 99 50 90 38 88 88 100 100 91 100 100 100 83 90 90 73 76 66 48 42 36 37 41 47 48 51 47 42 44 33 30 29 42 71
91 94 86 99 100 100 78 71 45 24 41 97 66 100 100 100 100 93 86 100 100 76 92 100 90 74 77 73 55 43 41 44 45 63 63 64 61 45 38 28 27 25 22
87 91 91 78 91 82 83 71 46 85 100 100 93 94 83 72 96 100 100 97 100 88 79 100 100 94 89 84 74 52 50 48 54 74 68 80 65 60 53 39 39 30 22
98 94 100 74 100 100 100 91 79 63 68 90 100 57 87 100 100 100 100 100 100 100 99 100 100 100 87 100 80 69 70 99 100 94 74 50 55 56 67 57 39 34 29
76 84 97 100 88 99 92 84 59 46 50 78 100 84 73 100 97 100 100 100 99 96 97 99 100 86 76 100 98 70 56 76 100 100 98 82 84 88 82 70 49 37 28
100 100 100 100 100 98 100 93 72 67 67 65 93 62 86 81 99 93 100 94 89 100 87 74 99 90 100 100 100 75 59 84 100 100 100 100 95 94 80 65 44 33 30
95 98 100 100 100 75 86 92 86 87 78 77 64 68 72 85 77 67 100 100 100 100 100 100 99 86 100 100 100 74 71 68 100 100 100 100 100 90 77 59 46 37 31
96 80 98 100 95 75 64 66 63 82 73 76 62 65 90 90 69 100 90 78 100 100 100 97 92 100 100 100 95 89 67 79 94 98 100 100 100 90 77 66 56 50 39
100 87 100 100 100 80 57 60 42 71 100 86 82 34 73 88 98 97 100 100 100 100 100 100 100 100 100 100 100 100 90 99 100 100 100 100 100 99 79 62 54 56 46
100 82 100 100 79 98 75 68 66 52 100 96 82 35 74 95 99 85 100 100 99 100 100 100 100 100 100 100 100 95 100 100 100 100 100 100 100 100 85 66 56 59 50
100 79 100 94 86 93 100 82 66 64 71 100 80 46 56 87 80 96 97 95 100 100 100 100 100 100 100 100 99 100 99 100 100 100 100 100 100 100 98 81 74 58 51